ONEWEB-0054, 45158

Orbit data source: Space-Track

ONEWEB-0054, 45158 is a payload satellite owned by One Web (UK) in LEO that was launched on Thu, 06 Feb 2020 UTC via a SOYUZ-2-1B launch vehicle from the Tyuratam Missile And Space Complex (TTMTR). Payload-class satellites include a variety of spacecraft equipped with specific instruments for various scientific and technological missions. These include communications satellites like Starlink; space stations such as the ISS; scientific satellites like the Hubble; Earth observation satellites from companies like Planet Labs, Umbra, and HawkEye 360; GPS; miniature CubeSats for education and research; and military/defense satellites.

Loading next visibility...
Identifier
45158, 2020-008AD
Orbit
LEO
Last TLE update
14 hours ago
Origin
Manufacturer
One Web
Mission
Operational Commercial Communications
Bus & Motor
ARROW, Unknown motor
Mass
148 kg wet, ~140 kg dry
Launch date (UTC)
2020-02-06 (5 years ago)
Launch vehicle
SOYUZ-2-1B
Launch site
Tyuratam Missile And Space Complex (TTMTR)
Object type
Payload
Rocket body
Debris
Shape & HBR
Trap Box + 2 Pan, 5 m
Radar Cross Section
2.957 m², Large (>1 m²)

Expand to show TLE details & history

TLE from 14 hours ago
0 ONEWEB-0054
1 45158U 20008AD  25181.83822436  .00000099  00000-0  24601-3 0  9990
2 45158  87.8828 106.3339 0001981  75.2981 284.8366 13.10376497262011
Epoch: 2025-06-30T20:07Z
TLE epoch observation values (Epoch: 2025-06-30T20:07:02.584Z)
Latitude
-0.00001°
Longitude
-114.56916°
Altitude
1,224.205 km
Speed
7.243 km/s
True Right ascension
07h 05m 20s
True Declination
0° 00' 00"
Sunlit
Object was in daylight at epoch
Visualization orbit readout
Latitude
41.23094°
Longitude
63.47131°
Altitude
1,227.042 km
Speed
7.245 km/s
Apparent Right ascension
15h 03m 00s
Apparent Declination
15° 37' 18"
Sunlit
Object is in daylight
Visualization observer readout
Local Sidereal Time
21:17:23
Azimuth
284.317° WNW
Elevation
7.265°
Doppler factor
1
Orbital elements
Apogee altitude
1,220.328 km
Perigee altitude
1,217.318 km
Semi-major axis
7,596.96 km
Eccentricity
0.0002
Inclination
87.8828°
RAAN
106.3339°
Arg. of periapsis
75.2981°
True anomaly
Unknown
Mean anomaly
284.8366°
Eccentric anomaly
Unknown
Mean motion
3.27781 °/min
Orbital period
109.83 mins
BSTAR
0.00024601
Loading maneuver chart data...
Loading SW <> Apogee altitude chart data...
Loading historical data...
Loading historical data...
Loading historical data...
Loading historical data...
Loading historical data...
Loading historical data...
Loading historical data...

ONEWEB-0054 Visibility forecast

Observer location: undefined°, undefined°

Span
Click to sort rows by Start time (UTC) header in descending order
Start Az.
Max El. time (UTC)
Max El. Az.
Max El.
End time (UTC)
End Az.
11 mins2025-07-01 18:14:04.523Z128.166° SE2025-07-01 18:19:04.523Z78.501° E25.57°2025-07-01 18:25:04.523Z22.659° NE
12 mins2025-07-01 20:03:04.523Z205.026° SW2025-07-01 20:09:04.523Z285.05° WNW37.719°2025-07-01 20:15:04.523Z348.462° N
9 mins2025-07-02 05:44:04.523Z34.466° NE2025-07-02 05:48:04.523Z72.918° E21.253°2025-07-02 05:53:04.523Z120.778° SE
12 mins2025-07-02 07:33:04.523Z350.344° N2025-07-02 07:39:04.523Z265.007° W41.69°2025-07-02 07:45:04.523Z197.279° SSW
|